Location: �clusier
(49.9361°N, 2.7869°E)
Time: 03:18:29
(UTC+00:00)

Cosmos 1943 Rocket - Pass Details

Date: 04 November 2021
Orbit: 811 x 844 km, 71.0° (Epoch: 07 December)

Event Time Altitude Azimuth Distance (km) Brightness Sun altitude
Rises 20:21:08 0° 324° (NW) 3,411 6.1 -38.5°
Reaches altitude 10° 20:23:53 10° 313° (NW) 2,468 5.3 -38.9°
Enters shadow 20:27:05 25° 283° (WNW) 1,634 4.1 -39.4°
